Regional Weather Roundup
Issued by NWS

Home | Current Version | Previous Version | Text Only | Print | Product List | Glossary On
Versions: 1 2 3 4 5 6 7 8 9 10 11 12 13 14 15 16 17 18 19 20 21 22 23 24 25 26 27 28 29 30 31 32 33 34 35 36 37 38 39 40 41 42 43 44 45 46 47 48 49 50
000
ASHW40 PHFO 061543
RWRHI

WEATHER ROUNDUP FOR HAWAII
NATIONAL WEATHER SERVICE HONOLULU HI
500 AM HST SAT FEB 06 2016

THIS IS AN AUTOMATED REPORT THAT HAS NOT BEEN QUALITY CONTROLLED.

NOTE..."FAIR" INDICATES FEW OR NO CLOUDS BELOW 12,000 FEET WITH NO
SIGNIFICANT WEATHER AND/OR OBSTRUCTIONS TO VISIBILITY.

* - THESE SITES REPORT LIMITED FIELDS

HIZ001>004-061600-
KAUAI-NIIHAU-

CITY           SKY/WX    TMP DP  RH WIND       PRES   REMARKS
LIHUE APT      CLOUDY    69  63  81 SW5       29.97F
PORT ALLEN*      N/A     66 N/A N/A NE7         N/A
POIPU*           N/A     66 N/A N/A N1          N/A
PRINCEVILLE*     N/A     68 N/A N/A S3          N/A
KOKOLE POINT*  NOT AVBL
MOLOAA DAIRY*    N/A     70  64  83 W3G10       N/A
WAIMEA HTS*      N/A     70  57  64 NW2         N/A
PUU OPAE*        N/A     63  50  63 N3G12       N/A
PUU LUA*       NOT AVBL
MAKAHA RIDGE*    N/A     63  59  88 N1          N/A
$$

HIZ005>011-061600-
OAHU-

CITY           SKY/WX    TMP DP  RH WIND       PRES   REMARKS
HONOLULU       CLOUDY    74  65  73 NW3       29.96S
KALAELOA       CLOUDY    70  64  81 CALM      29.97S
KANEOHE MCB    CLOUDY    72  68  87 CALM      29.93S
WHEELER FIELD  LGT RAIN  68  64  88 NW5       29.98R
BELLOWS*         N/A    N/A N/A N/A W3          N/A
KAHUKU*          N/A    N/A N/A N/A VRB2        N/A
WHEELER*         N/A    N/A N/A N/A N5          N/A
WAIANAE HARBOR   N/A    N/A N/A N/A N2          N/A
DILLINGHAM*      N/A     90  84  84 MISG        N/A  HX 115
KAHUKU TRN*      N/A     79  72  78 S2          N/A
KAWAILOA*        N/A     68  63  83 NE2         N/A
KII*             N/A     70  68  94 SW3         N/A
MAKUA RANGE*     N/A     82  72  69 E3          N/A
OAHU FOREST NW NOT AVBL
SCHOFIELD BRK*   N/A    N/A N/A N/A W1          N/A
SCHOFIELD S*   NOT AVBL
WAIANAE VLY*   NOT AVBL
KUAOKALA*      NOT AVBL
HONOULIUULI*   NOT AVBL
MOKUOLOE IS*   NOT AVBL
PALEHUA*         N/A     64  59  82 SE3         N/A
WAIAWA PHB*    NOT AVBL
$$

HIZ012>013-061600-
MOLOKAI-

CITY           SKY/WX    TMP DP  RH WIND       PRES   REMARKS
MOLOKAI AIRPT  CLOUDY    72  67  84 CALM      29.96F
KALAUPAPA      NOT AVBL
MAKAPULAPAI*     N/A     72  64  78 S3          N/A
MOLOKAI 1*     NOT AVBL
PUU ALII*        N/A     56  56 100 CALM        N/A
$$

HIZ016-061600-
KAHOOLAWE-

CITY           SKY/WX    TMP DP  RH WIND       PRES   REMARKS
KAHOOLAWE*       N/A     66 N/A N/A NW1         N/A
HAKIOAWA*        N/A     67  65  95 MISG      30.38S
HONOKANAIA*      N/A     71  67  86 NE3G9       N/A
KANELOA*         N/A     70  66  88 N3        30.02F
KEALIALALO*      N/A     70  66  88 W2        29.96S
LUA MAKIKA*    NOT AVBL
$$

HIZ014>015-061600-
LANAI-

CITY           SKY/WX    TMP DP  RH WIND       PRES   REMARKS
LANAI CITY     CLOUDY    68  67  96 N5        30.01S
LANAI 1*       NOT AVBL
$$

HIZ017>028-061600-
MAUI-

CITY           SKY/WX    TMP DP  RH WIND       PRES   REMARKS
KAHULUI        CLEAR     67  64  90 MISG      29.94F
KAPALUA-W MAUI NOT AVBL
HANA AIRPORT   CLEAR     63  32  31 S3        29.98R HAZE
HANA*            N/A     64 N/A N/A S3          N/A
HALEAKALA SUMM   N/A     43  -6  13 SW8         N/A
MAALAEA BAY*     N/A     72 N/A N/A S5          N/A
HALEAKALA*     NOT AVBL
KAUPO GAP*       N/A     55  45  67 N7G14       N/A
KULA 1*          N/A     46  43  87 NE3         N/A
$$

HIZ023>026-061600-
BIG ISLAND OF HAWAII COAST AND LOWER SLOPES-

CITY           SKY/WX    TMP DP  RH WIND       PRES   REMARKS
KAILUA KONA    CLEAR     72  64  76 SE6       29.95F
HILO           CLEAR     64  55  72 SW8       29.97F
HONOKAA*         N/A     59 N/A N/A VRB1        N/A
KAWAIHAE MWT*    N/A     72 N/A N/A E5          N/A
KAWAIHAE*        N/A     73 N/A N/A CALM      29.95R
SOUTH POINT*     N/A     63 N/A N/A NW8         N/A
UPOLU AIRPORT*   N/A    N/A N/A N/A SE6         N/A
KAMUELA*       SUNNY     50  46  87 E6        30.07R
HAKALAU*         N/A    N/A N/A N/A SW3         N/A
KALOKO-HONOKO*   N/A     70  59  68 CALM      29.94F
PALI 2*          N/A     55  52  88 N8          N/A
KEALAKOMO*       N/A     68  63  83 N5          N/A
KAUPULEHU*       N/A     64  59  82 SE5         N/A
KAPAPALA*        N/A     54  50  86 N3G9        N/A
LOWER KAHUKU*    N/A     54 N/A N/A N3G10       N/A
PUHE CS*         N/A     72  59  64 E5          N/A
PUHO CS*         N/A     68  55  64 E2          N/A
PTA KEAMUKU*     N/A     57  45  62 CALM        N/A
WAIKOLOA*        N/A     63  54  72 SE7         N/A
$$

HIZ027>028-061600-
BIG ISLAND OF HAWAII INTERIOR AND SUMMMITS-

CITY           SKY/WX    TMP DP  RH WIND       PRES   REMARKS
BRADSHAW FIELD CLOUDY    42  28  56 SE5       30.27F
MK VISITOR CEN   N/A     45 -22   5 N5          N/A
MAUNA KEA*       N/A     37 -33   4 N28         N/A  WCI  25
MAUNA LOA*       N/A     43 -51   1 MISG        N/A
MAUNA LOA 1*   NOT AVBL
PTA KIPUKA*      N/A     43  37  81 E5          N/A
PTA RANGE 17*    N/A     64  54  68 E8          N/A
PTA WEST*        N/A     52  41  66 E13G18      N/A
NENE CABIN*      N/A    N/A N/A N/A N7          N/A
AHUMOA*          N/A    N/A N/A N/A E7          N/A
PTA PORTABLE*  NOT AVBL
PUU MALI*        N/A     45  32  61 S7          N/A
$$

HIC003-061600-
NORTHWEST ISLANDS-

CITY           SKY/WX    TMP DP  RH WIND       PRES   REMARKS
MIDWAY ISLAND  PTCLDY    57  41  54 N17G23    30.32S
MIDWAY NOS*      N/A     61 N/A N/A MISG      30.30R
FRENCH FRIGATE NOT AVBL
$$

PHZ110>124-180-061600-
BUOY REPORTS

STATION/POSITION TIME  TEMP    WIND        PRES    WAVE   SWELL
                       AIR SEA DIR/SP/G            HT/PER HT/DIR
                 (UTC) (F)     (DEG/KT/KT) (MB)    (FT/S) (FT/D)
BUOY 51001       1500   72 77  350/ 14/ 17 1014.0F
BUOY 51101       1450   72 76  340/ 14/ 16 1013.9F   6/10   5/350
BUOY 51100       NOT AVBL
BUOY 51002       1450   72 77  110/ 12/ 16 1014.2S   7/10   7/ 80
BUOY 51003       1450   77 78   50/  6/  6 1014.0S   5/ 9   5/ 30
BUOY 51004       1450   74 77   90/  8/ 10 1014.6R   8/ 9   8/100
BARBERS PT BUOY  NOT AVBL
WAIMEA BAY BUOY  1504      78                N/A     5/12   3/320
KAILUA BAY BUOY  1511      77                N/A     5/11   3/350
LANAI BUOY       NOT AVBL
BARBERS PT 2     1503      78                N/A     3/12   2/310
PAUWELA MAUI     1507      76                N/A     6/11   3/330
HILO             NOT AVBL
KANEOHE BAY BUOY 1506      77                N/A     4/11   2/ 10
HANALEI KAUAI    1501      77                N/A     5/11   3/310
KAHULUI HARBOR   1500   69 78  130/  1/  2 1013.8S
HONOLULU HARBOR  1500   74 77     CALM     1014.9S
KILO NALU        NOT AVBL
HILO HARBOR      1500   65 76  200/  6/  9 1014.4F
MOKUOLOE         1400   72 78  230/  2/  3 1014.2S
NAWILIWILI       1500   66 79  260/  4/  5 1014.3F
WHOTS BUOY       NOT AVBL
BUOY 51028       NOT AVBL
$$

......................KEY........................................
  SKY/WX - SKY CONDITIONS/PRESENT WEATHER
  TMP    - TEMPERATURE IN FAHRENHEIT
  DWPT   - DEWPOINT IN FAHRENHEIT
  RH     - RELATIVE HUMIDITY IN PERCENT
  WIND   - DIRECTION AND SPEED /MPH FOR ISLANDS...KTS FOR BUOYS/
  PRES   - MEAN SEA LEVEL PRESSURE IN INCHES OF HG
  VSB    - VISIBILITY IN MILES
  HX     - HEAT INDEX
  WCI    - WIND CHILL INDEX
  VRB    - VARIABLE WIND DIRECTION
  N/A    - NOT AVAILABLE



USA.gov is the U.S. government's official web portal to all federal, state and local government web resources and services.